Regional Weather Roundup
Issued by NWS

Home | Current Version | Previous Version | Graphics & Text | Print | Product List | Glossary On
Versions: 1 2 3 4 5 6 7 8 9 10 11 12 13 14 15 16 17 18 19 20 21 22 23 24 25 26 27 28 29 30 31 32 33 34 35 36 37 38 39 40 41 42 43 44 45 46 47 48 49 50
000
ASUS43 KLOT 310412
RWRIL

ILLINOIS REGIONAL WEATHER ROUNDUP
NATIONAL WEATHER SERVICE CHICAGO/ROMEOVILLE IL
1100 PM CDT SUN AUG 30 2015

NOTE: "FAIR" INDICATES FEW OR NO CLOUDS BELOW 12,000 FEET WITH NO
SIGNIFICANT WEATHER AND/OR OBSTRUCTIONS TO VISIBILITY.

* THESE STATIONS ARE NOT UNDER NWS QUALITY CONTROL. THEY ALSO MAY NOT
  REPORT WEATHER SUCH AS PRECIPITATION OR FOG.

ILZ001-002-007-009-015-016-024-310500-
NORTHWEST ILLINOIS

CITY           SKY/WX    TMP DP  RH WIND       PRES   REMARKS
MOLINE         CLEAR     65  63  93 CALM      30.02S
STERLING*        N/A    N/A N/A N/A MISG        N/A
SAVANNA*       FOG       62  61  94 CALM      30.03S VSB 1/4
$$

ILZ003-004-008-010-011-017-018-310500-
NORTH CENTRAL ILLINOIS

CITY           SKY/WX    TMP DP  RH WIND       PRES   REMARKS
ROCKFORD       CLEAR     65  62  90 CALM      30.05S
FREEPORT*      CLEAR     61  60  97 CALM      30.05S
ROCHELLE*      CLEAR     60  59  98 CALM      30.05S FOG
DE KALB*       CLEAR     63  63  98 CALM      30.05F FOG
PERU*          CLEAR     66  62  87 CALM      30.04S FOG
$$

ILZ005-006-012>014-019>023-310500-
NORTHEAST ILLINOIS

CITY           SKY/WX    TMP DP  RH WIND       PRES   REMARKS
CHICAGO-OHARE  CLEAR     65  63  93 SE3       30.04S FOG
CHICAGO-MIDWAY CLEAR     69  64  84 E3        30.03F
AURORA         CLEAR     61  59  93 CALM      30.05R FOG
LANSING*         N/A     63  63  99 CALM      30.04S FOG
JOLIET*          N/A     65  64  98 CALM      30.03F FOG
WAUKEGAN       FOG       61  60  97 CALM      30.04R VSB 1/4
DUPAGE AIRPORT CLEAR     63  61  93 CALM      30.04S
KANKAKEE*      CLEAR     66  65  98 CALM      30.04F FOG
WHEELING       CLEAR     63  61  93 CALM      30.05F FOG
MORRIS*        CLEAR     64  63  95 CALM      30.02F FOG
ROMEOVILLE*    CLEAR     64  63  97 CALM      30.04S FOG
NORTHERLY ISL    N/A     66  63  90 SE1         N/A
$$

LMZ740>746-310500-
SOUTHERN LAKE MICHIGAN

STATION/POSITION SKY/WX   TEMP    WIND        PRES    VSBY  WAVE
                          AIR SEA DIR/SP/G                  HT/PER
                          (F)     (DEG/KT/KT) (MB)    (MI)  (FT/S)
SOUTHERN BUOY              67 68  170/  4/  6 1016.7F
WILMETTE HARBOR            61 61  350/  2/  2   N/A           1
HARRISON CRIB              68     110/  6/  7   N/A
BURNHAM HARBOR             66      CALM  /  3   N/A
BURNS HARBOR               69      80/  4/  7 1017.9S
MICHIGAN CITY              67     100/  3/  4   N/A
MICHIGAN CITY 6N           69 71  120/  4/  6   N/A           1
ST. JOSEPH                 69 71  160/  4/  6   N/A           1
$$

ILZ025>027-034>036-040-047-049-050-058-095>099-310500-
WEST-CENTRAL ILLINOIS

CITY           SKY/WX    TMP DP  RH WIND       PRES   REMARKS
QUINCY         CLEAR     74  69  85 E5        30.01S
GALESBURG*     CLEAR     68  65  93 E3        30.03S
MACOMB*        CLEAR     64  64  97 CALM      30.04S FOG
JACKSONVILLE*  CLEAR     71  69  90 CALM      30.02S
PITTSFIELD*    CLEAR     70  67  92 CALM      30.02F
$$

ILZ028>032-037-038-041>044-048-051>054-059>061-310500-
CENTRAL ILLINOIS

CITY           SKY/WX    TMP DP  RH WIND       PRES   REMARKS
PONTIAC        CLEAR     65  65  98 E5        30.04S FOG
BLOOMINGTON    CLEAR     69  68  97 E5        30.05S
DECATUR        CLEAR     74  67  78 S6        30.03S
PEORIA         CLEAR     72  66  81 NE3       30.02F
LACON*         CLEAR     64  62  93 CALM      30.02S
LINCOLN*       CLEAR     71  67  87 CALM      30.02S
SPRINGFIELD    CLEAR     74  70  87 CALM      30.02S
TAYLORVILLE    CLEAR     70  68  94 S3        30.03S
$$

ILZ033-039-045-046-055>057-062-063-310500-
EAST-CENTRAL ILLINOIS

CITY           SKY/WX    TMP DP  RH WIND       PRES   REMARKS
CHAMPAIGN      CLEAR     69  67  93 CALM      30.05R
RANTOUL*       CLEAR     74  71  91 CALM      30.04S
MATTOON        CLEAR     73  67  81 CALM      30.04R
PARIS*         CLEAR     68  66  93 CALM      30.05S
$$

ILZ079-100>102-310500-
SOUTHWEST ILLINOIS

CITY           SKY/WX    TMP DP  RH WIND       PRES   REMARKS
ALTON          CLEAR     71  69  93 E3        30.01F
BELLEVILLE     MOCLDY    76  75  99 E6        30.01S
CAHOKIA*       MOCLDY    76  70  82 S3        30.01S
SPARTA*        CLOUDY    74  72  93 SE5       30.04S
$$

ILZ064>066-069>071-074>076-080>082-084>086-088>090-092>094-310500-
SOUTH-CENTRAL ILLINOIS

CITY           SKY/WX    TMP DP  RH WIND       PRES   REMARKS
CARBONDALE     CLEAR     73  69  87 S3        30.04S
CAIRO*         PTCLDY    72  71  96 S3        30.05S
EFFINGHAM*     PTCLDY    70  67  88 SE5       30.05S
MARION         PTCLDY    73  70  88 S3        30.05S
MT. VERNON     PTCLDY    73  64  73 S3        30.05S
SALEM*         CLEAR     76  70  80 S5        30.03S
METROPOLIS*    CLOUDY    71  70  96 CALM      30.06S
$$

ILZ067-068-072-073-078-083-087-091-310500-
SOUTHEAST ILLINOIS

CITY           SKY/WX    TMP DP  RH WIND       PRES   REMARKS
LAWRENCEVILLE  CLEAR     71  68  90 S3        30.05S
FLORA*         CLEAR     70  67  89 CALM      30.04S
FAIRFIELD*     MOCLDY    72  70  94 S3        30.04S
HARRISBURG*    PTCLDY    71  68  91 CALM      30.05F
ROBINSON*      CLEAR     67  66  94 CALM      30.06S
CARMI*         PTCLDY    69  68  96 S3        30.04F
$$

ABBREVIATIONS USED IN REMARKS
   TC - TEMPERATURE IN CELSIUS
  WCI - WIND CHILL INDEX
   HX - HEAT INDEX
  VSB - VISIBILITY
$$




USA.gov is the U.S. government's official web portal to all federal, state and local government web resources and services.